Weather History for KHUF - December, 2013

Change the Weather History Date:

Tuesday, December 24, 2013

  Actual Average Record
Temperature  
Mean Temperature 14 °F 29 °F  
Max Temperature 20 °F 37 °F 59 °F (1979)
Min Temperature 7 °F 22 °F -16 °F (1989)
Degree Days  
Heating Degree Days 51 36  
Month to date heating degree days 842 781  
Since 1 July heating degree days 1964 1859  
Cooling Degree Days 0 0  
Month to date cooling degree days 0 0  
Year to date cooling degree days 1056 993  
Moisture  
Dew Point 4 °F    
Average Humidity 65    
Maximum Humidity 74    
Minimum Humidity 56    
Precipitation  
Precipitation T in 0.13 in 1.28 in (1982)
Month to date precipitation 3.65 2.19  
Year to date precipitation 45.01 44.30  
Sea Level Pressure  
Sea Level Pressure 30.57 in    
Wind  
Wind Speed 7 mph (West)    
Max Wind Speed 16 mph    
Max Gust Speed 21 mph    
Visibility 10 miles    
Events Snow    
T = Trace of Precipitation, MM = Missing Value Source: NWS Daily Summary

Daily Weather History Graph

Daily Weather History Graph

Search for Another Location

Airport or City:

Trip Planner

Search our weather history database for the weather conditions in past years. The results will help you decide how hot, cold, wet, or windy it might be!

Date:

Astronomy

Dec. 24, 2013 Rise Set
Actual Time 8:07 AM EST 5:30 PM EST
Civil Twilight 7:37 AM EST 6:00 PM EST
Nautical Twilight 7:03 AM EST 6:34 PM EST
Astronomical Twilight 6:30 AM EST 7:07 PM EST
Moon No Moon Rise 12:03 PM EST (12/24)
Length of Visible Light 10h 23m
Length of Day
9h 23m
Waning Gibbous, 59% of the Moon is Illuminated
Dec 24
Waning Gibbous
Dec 25
Last Quarter
Jan 1
New
Jan 7
First Quarter
Jan 15
Full

Hourly Weather History & Observations

Time (EST) Temp. Windchill Dew Point Humidity Pressure Visibility Wind Dir Wind Speed Gust Speed Precip Events Conditions
12:42 AM 12.2 °F -0.2 °F 5.0 °F 73% 30.50 in 10.0 mi WNW 9.2 mph - N/A   Mostly Cloudy
12:53 AM 12.9 °F -0.9 °F 3.9 °F 67% 30.53 in 10.0 mi WNW 11.5 mph - N/A   Overcast
1:53 AM 12.9 °F 1.6 °F 6.1 °F 74% 30.53 in 7.0 mi NW 8.1 mph - 0.00 in Snow Light Snow
2:53 AM 10.9 °F -2.6 °F 3.0 °F 70% 30.56 in 10.0 mi NW 10.4 mph - 0.00 in   Mostly Cloudy
3:14 AM 8.6 °F -7.0 °F -0.4 °F 67% 30.53 in 10.0 mi NW 12.7 mph - N/A   Partly Cloudy
3:53 AM 8.1 °F -7.0 °F -2.0 °F 64% 30.56 in 10.0 mi NW 11.5 mph - N/A   Clear
4:53 AM 7.0 °F -7.5 °F -2.0 °F 67% 30.56 in 10.0 mi NW 10.4 mph - N/A   Clear
5:53 AM 7.0 °F -5.7 °F -2.0 °F 67% 30.58 in 10.0 mi WNW 8.1 mph - N/A   Clear
6:53 AM 7.0 °F -3.3 °F -2.0 °F 67% 30.59 in 10.0 mi WNW 5.8 mph - N/A   Clear
7:53 AM 7.0 °F -4.5 °F -2.9 °F 64% 30.61 in 10.0 mi WNW 6.9 mph - N/A   Clear
8:53 AM 7.0 °F -3.3 °F -2.0 °F 67% 30.62 in 10.0 mi West 5.8 mph - N/A   Clear
9:53 AM 9.0 °F -2.2 °F -0.9 °F 64% 30.63 in 10.0 mi West 6.9 mph - N/A   Clear
10:53 AM 10.9 °F - -0.0 °F 61% 30.64 in 10.0 mi Calm Calm - N/A   Clear
11:53 AM 14.0 °F 2.9 °F 3.0 °F 62% 30.65 in 10.0 mi West 8.1 mph - N/A   Clear
12:53 PM 15.1 °F 9.4 °F 3.0 °F 59% 30.62 in 10.0 mi Variable 3.5 mph - N/A   Clear
1:53 PM 17.1 °F 7.6 °F 5.0 °F 59% 30.60 in 10.0 mi West 6.9 mph - N/A   Clear
2:53 PM 18.0 °F - 5.0 °F 57% 30.58 in 10.0 mi Calm Calm - N/A   Clear
3:53 PM 19.0 °F - 6.1 °F 57% 30.57 in 10.0 mi Calm Calm - N/A   Clear
4:53 PM 19.0 °F 12.3 °F 7.0 °F 59% 30.57 in 10.0 mi South 4.6 mph - N/A   Clear
5:53 PM 17.1 °F 7.6 °F 8.1 °F 68% 30.56 in 10.0 mi SE 6.9 mph - N/A   Clear
6:53 PM 17.1 °F 8.7 °F 9.0 °F 71% 30.56 in 10.0 mi SE 5.8 mph - N/A   Clear
7:53 PM 18.0 °F 9.8 °F 10.0 °F 71% 30.55 in 10.0 mi SSE 5.8 mph - N/A   Clear
8:53 PM 18.0 °F 8.7 °F 10.0 °F 71% 30.54 in 10.0 mi SSE 6.9 mph - N/A   Clear
9:53 PM 19.0 °F 9.0 °F 10.0 °F 68% 30.51 in 10.0 mi SSE 8.1 mph - N/A   Partly Cloudy
10:53 PM 19.9 °F 11.1 °F 10.9 °F 68% 30.49 in 10.0 mi SSE 6.9 mph - N/A   Overcast
11:53 PM 19.9 °F 7.3 °F 10.9 °F 68% 30.47 in 10.0 mi South 12.7 mph - N/A   Scattered Clouds